Weather History for Gunnison, CO

Change the Weather History Date:

Wednesday, February 13, 2013

  Actual Average Record
Temperature  
Mean Temperature 8 °F -  
Max Temperature 28 °F 27 °F 44 °F (2003)
Min Temperature -11 °F 3 °F -25 °F (2004)
Degree Days  
Heating Degree Days 56    
Moisture  
Dew Point -2 °F    
Average Humidity 70    
Maximum Humidity 100    
Minimum Humidity 43    
Precipitation  
Precipitation 0.00 in - - ()
Sea Level Pressure  
Sea Level Pressure 30.19 in    
Wind  
Wind Speed 2 mph (NE)    
Max Wind Speed 10 mph    
Max Gust Speed -    
Visibility 10 miles    
Events      
Averages and records for this station are not official NWS values.
T = Trace of Precipitation, MM = Missing Value Source: NWS Daily Summary

Daily Weather History Graph

Daily Weather History Graph

Search for Another Location

Airport:

Trip Planner

Search our weather history database for the weather conditions in past years. The results will help you decide how hot, cold, wet, or windy it might be!

Date:

Astronomy

Feb. 13, 2013 Rise Set
Actual Time 7:00 AM MST 5:43 PM MST
Civil Twilight 6:33 AM MST 6:11 PM MST
Nautical Twilight 6:02 AM MST 6:42 PM MST
Astronomical Twilight 5:31 AM MST 7:13 PM MST
Moon 8:34 AM MST (2/13) 9:45 PM MST (2/13)
Length of Visible Light 11h 37m
Length of Day
10h 43m
Waxing Crescent, 14% of the Moon is Illuminated
Feb 13
Waxing Crescent
Feb 17
First Quarter
Feb 25
Full
Mar 4
Last Quarter
Mar 11
New

Hourly Weather History & Observations

Time (MST) Temp. Windchill Dew Point Humidity Pressure Visibility Wind Dir Wind Speed Gust Speed Precip Events Conditions
12:15 AM 1.4 °F - 1.4 °F 100% 30.20 in 10.0 mi Calm Calm - N/A   Clear
12:35 AM -0.4 °F - -13.0 °F 55% 30.20 in 10.0 mi Calm Calm - N/A   Clear
12:55 AM -5.8 °F - -9.4 °F 84% 30.21 in 10.0 mi Calm Calm - N/A   Clear
1:15 AM -4.0 °F -14.6 °F -9.4 °F 78% 30.22 in 10.0 mi NE 4.6 mph - N/A   Clear
1:35 AM -4.0 °F -12.4 °F -4.0 °F 100% 30.22 in 10.0 mi NE 3.5 mph - N/A   Clear
1:55 AM -2.2 °F - -11.2 °F 66% 30.22 in 10.0 mi Calm Calm - N/A   Clear
2:15 AM -5.8 °F -16.7 °F -5.8 °F 100% 30.23 in 10.0 mi ENE 4.6 mph - N/A   Clear
2:35 AM -7.6 °F - -16.6 °F 65% 30.21 in 10.0 mi Calm Calm - N/A   Clear
2:55 AM -5.8 °F -16.7 °F -5.8 °F 100% 30.20 in 10.0 mi NE 4.6 mph - N/A   Clear
3:15 AM -5.8 °F - -7.6 °F 92% 30.20 in 10.0 mi Calm Calm - N/A   Clear
3:35 AM -5.8 °F -14.5 °F -18.4 °F 55% 30.20 in 10.0 mi ENE 3.5 mph - N/A   Clear
3:55 AM -7.6 °F -18.8 °F -9.4 °F 92% 30.20 in 10.0 mi ENE 4.6 mph - N/A   Clear
4:15 AM -5.8 °F -16.7 °F -5.8 °F 100% 30.21 in 10.0 mi ENE 4.6 mph - N/A   Clear
4:35 AM -7.6 °F -18.8 °F -13.0 °F 77% 30.22 in 10.0 mi ENE 4.6 mph - N/A   Clear
4:55 AM -7.6 °F - -9.4 °F 92% 30.21 in 10.0 mi Calm Calm - N/A   Clear
5:15 AM -7.6 °F - -11.2 °F 84% 30.21 in 10.0 mi Calm Calm - N/A   Clear
5:35 AM -9.4 °F - -18.4 °F 65% 30.22 in 10.0 mi Calm Calm - N/A   Clear
5:55 AM -7.6 °F - -9.4 °F 92% 30.22 in 10.0 mi Calm Calm - N/A   Clear
6:15 AM -7.6 °F -16.5 °F -14.8 °F 71% 30.22 in 10.0 mi NNE 3.5 mph - N/A   Clear
6:35 AM -7.6 °F - -11.2 °F 84% 30.22 in 10.0 mi Calm Calm - N/A   Clear
6:55 AM -11.2 °F -20.6 °F -14.8 °F 84% 30.22 in 10.0 mi South 3.5 mph - N/A   Clear
7:15 AM -11.2 °F - -23.8 °F 54% 30.23 in 10.0 mi Calm Calm - N/A   Clear
7:35 AM -9.4 °F - -9.4 °F 100% 30.23 in 10.0 mi Calm Calm - N/A   Clear
7:55 AM -9.4 °F - -14.8 °F 77% 30.23 in 10.0 mi Calm Calm - N/A   Clear
8:15 AM -9.4 °F -18.6 °F -23.8 °F 49% 30.25 in 10.0 mi East 3.5 mph - N/A   Clear
8:35 AM -7.6 °F -16.5 °F -18.4 °F 59% 30.25 in 10.0 mi East 3.5 mph - N/A   Clear
8:55 AM -5.8 °F - -16.6 °F 60% 30.25 in 10.0 mi Calm Calm - N/A   Clear
9:15 AM -2.2 °F - -11.2 °F 66% 30.25 in 10.0 mi Calm Calm - N/A   Clear
9:35 AM 1.4 °F - -0.4 °F 92% 30.25 in 10.0 mi Calm Calm - N/A   Clear
9:55 AM -0.4 °F -8.3 °F -18.4 °F 43% 30.25 in 10.0 mi East 3.5 mph - N/A   Clear
10:15 AM 5.0 °F -2.1 °F - N/A% 30.25 in 10.0 mi ENE 3.5 mph - N/A   Clear
10:35 AM 6.8 °F -2.0 °F -4.0 °F 61% 30.25 in 10.0 mi East 4.6 mph - N/A   Clear
11:15 AM 8.6 °F - -0.4 °F 67% 30.23 in 10.0 mi Calm Calm - N/A   Clear
11:35 AM 10.4 °F - 3.2 °F 73% 30.23 in 10.0 mi Calm Calm - N/A   Clear
12:15 PM 12.2 °F - 3.2 °F 67% 30.21 in 10.0 mi Calm Calm - N/A   Clear
12:35 PM 14.0 °F 8.2 °F 1.4 °F 57% 30.19 in 10.0 mi SE 3.5 mph - N/A   Clear
12:55 PM 15.8 °F 10.2 °F 5.0 °F 62% 30.18 in 10.0 mi SE 3.5 mph - N/A   Clear
1:15 PM 15.8 °F - 3.2 °F 58% 30.16 in 10.0 mi Calm Calm - N/A   Clear
1:35 PM 17.6 °F 12.3 °F 6.8 °F 63% 30.15 in 10.0 mi East 3.5 mph - N/A   Clear
1:55 PM 19.4 °F 14.3 °F 6.8 °F 58% 30.14 in 10.0 mi East 3.5 mph - N/A   Clear
2:15 PM 19.4 °F - 6.8 °F 58% 30.13 in 10.0 mi Calm Calm - N/A   Clear
2:35 PM 23.0 °F - 10.4 °F 59% 30.13 in 10.0 mi Calm Calm - N/A   Clear
2:55 PM 24.8 °F 20.5 °F 8.6 °F 50% 30.13 in 10.0 mi North 3.5 mph - N/A   Clear
3:15 PM 24.8 °F 19.1 °F 8.6 °F 50% 30.13 in 10.0 mi North 4.6 mph - N/A   Clear
3:35 PM 26.6 °F - 10.4 °F 51% 30.13 in 10.0 mi Calm Calm - N/A   Clear
4:15 PM 24.8 °F 20.5 °F 10.4 °F 54% 30.13 in 10.0 mi East 3.5 mph - N/A   Clear
4:35 PM 26.6 °F - 10.4 °F 51% 30.12 in 10.0 mi Calm Calm - N/A   Clear
4:55 PM 28.4 °F 23.3 °F 12.2 °F 51% 30.12 in 10.0 mi WNW 4.6 mph - N/A   Clear
5:15 PM 28.4 °F 23.3 °F 10.4 °F 47% 30.12 in 10.0 mi West 4.6 mph - N/A   Clear
5:35 PM 26.6 °F 18.2 °F 12.2 °F 55% 30.12 in 10.0 mi West 8.1 mph - N/A   Clear
5:55 PM 26.6 °F 16.8 °F 14.0 °F 59% 30.12 in 10.0 mi WSW 10.4 mph - N/A   Clear
6:35 PM 23.0 °F - 8.6 °F 54% 30.14 in 10.0 mi Calm Calm - N/A   Clear
6:55 PM 21.2 °F - 12.2 °F 68% 30.14 in 10.0 mi North - - N/A   Clear
7:15 PM 19.4 °F 14.3 °F 6.8 °F 58% 30.14 in 10.0 mi NNW 3.5 mph - N/A   Clear
7:36 PM 17.6 °F 10.7 °F 6.8 °F 63% 30.15 in 10.0 mi North 4.6 mph - N/A   Clear
7:55 PM 15.8 °F 6.1 °F 3.2 °F 58% 30.15 in 10.0 mi North 6.9 mph - N/A   Clear
8:15 PM 15.8 °F 7.2 °F 6.8 °F 68% 30.16 in 10.0 mi North 5.8 mph - N/A   Clear
8:35 PM 14.0 °F 6.5 °F 5.0 °F 67% 30.16 in 10.0 mi NNE 4.6 mph - N/A   Clear
8:55 PM 12.2 °F - 6.8 °F 79% 30.16 in 10.0 mi Calm Calm - N/A   Clear
9:15 PM 10.4 °F - 1.4 °F 67% 30.17 in 10.0 mi Calm Calm - N/A   Clear
9:35 PM 8.6 °F - 1.4 °F 73% 30.17 in 10.0 mi Calm Calm - N/A   Clear
10:15 PM 8.6 °F - 1.4 °F 73% 30.17 in 10.0 mi Calm Calm - N/A   Clear
10:35 PM 8.6 °F - 3.2 °F 79% 30.18 in 9.0 mi Calm Calm - N/A   Clear
10:55 PM 6.8 °F - 3.2 °F 85% 30.18 in 5.0 mi Calm Calm - N/A   Clear
11:15 PM 8.6 °F - 1.4 °F 73% 30.18 in 9.0 mi Calm Calm - N/A   Clear
11:35 PM 5.0 °F - -2.2 °F 72% 30.19 in 10.0 mi Calm Calm - N/A   Clear
11:55 PM 3.2 °F -4.2 °F -0.4 °F 85% 30.19 in 10.0 mi NE 3.5 mph - N/A   Clear